Wind_Speed
60 58 56 49 40 35 35 36 31 31 32 27 24 22 21 18 17 20 20 20 21 23 27 29 28 25 24 23 24 23 25 28 30 33 34 36 37 37 36 34 32 31 32 33
61 57 48 43 41 39 37 35 30 30 30 26 24 20 20 18 18 19 19 20 22 24 23 23 22 21 20 20 23 25 28 32 35 36 36 35 34 32 31 31 32 34 35 37
60 54 48 45 41 37 34 30 28 29 29 26 25 21 21 21 21 20 18 19 20 19 19 22 22 21 21 23 26 29 32 34 35 33 31 30 29 30 32 34 36 38 39 42
57 49 45 44 39 35 29 26 27 29 27 22 24 21 20 22 23 22 20 20 19 18 19 23 24 24 25 27 31 34 35 34 32 31 31 31 32 34 36 38 40 43 46 48
58 50 47 46 38 32 25 26 26 28 26 23 21 19 16 22 24 24 23 21 19 20 21 23 26 28 31 32 33 35 35 32 32 33 34 35 37 38 40 43 45 47 47 47
55 52 47 40 36 30 28 26 25 27 27 23 18 19 14 21 23 23 23 23 22 22 23 24 27 31 34 34 34 34 33 34 35 37 38 39 40 42 44 45 46 47 49 52
53 49 44 40 38 35 33 31 26 25 24 21 20 20 15 21 22 23 23 24 23 23 25 26 29 32 35 36 35 34 35 37 38 40 40 41 42 43 44 45 48 51 54 57
53 51 47 43 38 35 31 30 25 25 23 23 21 19 17 21 24 25 25 24 26 26 27 28 30 34 36 37 35 35 38 39 40 40 41 41 41 43 47 50 54 58 61 65
50 47 42 38 34 33 31 31 27 25 23 22 22 20 20 22 25 27 27 29 30 30 29 27 31 34 36 36 37 38 39 39 39 38 38 41 45 49 53 57 61 65 68 71
44 44 43 37 35 37 36 31 29 26 25 23 21 20 22 24 26 27 28 30 31 30 28 29 32 35 37 38 38 38 37 37 37 39 42 46 50 53 56 60 63 66 69 72
41 39 39 38 37 35 33 31 28 27 25 24 21 20 21 22 23 25 26 27 28 28 28 30 33 35 38 39 36 35 36 38 39 42 45 49 53 56 59 63 66 69 71 74
38 35 35 37 37 36 35 31 29 29 27 23 21 17 19 20 22 22 21 22 24 26 29 32 35 36 37 37 35 36 37 39 42 45 50 54 58 61 63 66 68 71 73 76
35 38 37 38 39 38 34 30 28 26 25 22 21 16 19 20 21 19 20 23 26 28 30 33 36 36 36 36 36 38 41 44 48 52 55 58 62 64 66 68 70 73 76 81
33 37 37 35 31 30 29 26 25 26 24 23 20 18 22 23 20 20 22 25 27 29 32 35 35 35 36 37 40 43 47 51 55 57 58 61 64 67 69 71 74 78 83 88
25 32 33 33 34 32 31 29 29 28 24 24 21 23 25 23 21 23 25 26 29 31 33 35 35 37 39 42 45 49 52 54 56 58 61 64 67 69 72 75 79 84 90 96
24 32 33 30 30 29 30 31 30 28 26 25 24 24 25 24 24 26 26 28 30 32 33 35 37 40 43 46 49 51 52 54 57 60 63 65 68 71 75 80 86 91 96 98
24 32 33 31 31 30 30 29 28 27 26 27 25 24 25 25 25 26 27 29 31 33 35 37 40 43 47 49 50 52 54 57 60 62 65 67 71 75 80 86 91 94 96 95
26 32 33 30 30 31 26 27 27 26 26 25 24 24 22 22 25 28 30 32 33 35 37 40 44 47 49 50 52 55 57 59 62 65 68 72 76 80 85 90 93 95 93 86
29 28 27 26 26 25 24 25 25 25 25 26 26 25 23 24 28 30 32 32 34 38 41 45 47 49 51 53 55 57 60 63 66 69 72 75 79 84 88 91 92 90 84 75
28 28 28 29 29 29 24 25 26 28 28 25 22 21 23 26 30 31 33 35 37 41 44 47 49 51 53 56 59 61 63 65 67 71 74 78 83 86 89 90 87 82 75 71
21 26 28 29 30 30 27 24 25 27 24 22 23 25 28 30 31 32 35 38 41 44 47 50 52 54 57 59 61 63 64 66 70 73 77 82 85 87 88 85 80 75 72 75
18 21 22 22 22 22 20 21 21 22 23 23 25 27 30 31 33 35 38 41 44 47 50 53 56 58 60 61 62 63 65 69 73 76 80 83 84 85 84 80 75 72 74 78
22 23 22 23 23 23 23 22 22 23 23 24 27 29 32 34 37 40 42 45 48 52 55 57 59 61 61 61 62 65 68 71 75 79 82 83 83 82 79 75 73 73 76 80
21 21 20 20 20 20 21 22 23 25 27 28 31 33 35 38 41 45 48 51 54 57 60 61 61 61 60 62 65 67 70 73 78 81 82 83 82 78 73 72 73 75 77 81
20 20 20 21 23 24 26 28 29 30 32 34 36 39 42 44 48 51 55 57 60 63 63 62 61 61 63 65 67 69 73 77 81 83 84 83 80 74 70 70 72 74 77 81
24 26 27 27 28 30 32 33 34 35 36 39 41 44 47 50 53 56 59 62 64 64 62 61 61 62 63 65 68 73 77 80 83 84 83 80 75 71 70 70 70 71 75 80
Wind_Direction
205 210 212 213 217 220 215 212 212 219 226 226 223 226 233 235 236 239 241 245 253 262 272 276 272 268 269 269 269 273 279 283 286 289 292 292 292 292 292 291 290 291 293 294
205 211 211 211 212 217 215 214 216 224 228 223 217 219 233 230 229 233 241 252 263 270 269 267 267 264 262 265 270 277 284 288 290 291 291 291 291 291 291 290 290 290 290 290
206 206 206 207 211 216 214 215 220 229 228 220 216 213 224 228 231 238 248 259 262 263 265 266 268 268 269 274 278 284 289 292 293 292 291 290 290 290 289 288 288 287 288 291
205 204 205 206 208 212 209 214 219 227 230 225 222 217 222 224 234 242 249 257 261 256 260 267 270 270 270 275 282 288 292 293 293 292 291 291 291 289 289 289 289 290 292 294
202 200 201 204 206 208 205 218 224 227 230 223 223 224 212 232 234 240 245 250 255 256 259 267 271 274 277 281 287 293 293 291 291 290 290 290 290 290 290 290 291 293 295 296
203 203 206 204 204 205 208 221 228 226 229 225 228 234 213 236 239 244 246 249 252 255 260 268 274 278 281 284 290 292 291 289 289 289 290 292 294 295 296 297 298 298 300 301
200 203 206 205 205 205 213 219 224 233 234 231 235 240 231 243 242 244 248 253 257 261 266 272 276 280 283 286 290 291 288 288 289 291 294 296 298 301 303 303 302 302 302 302
201 199 200 203 205 212 216 216 225 237 239 240 244 246 243 248 248 248 251 255 259 263 270 276 281 283 285 287 288 287 287 290 293 295 297 301 305 305 305 306 307 307 306 305
203 204 203 207 209 214 216 220 229 237 241 244 244 247 251 249 249 249 252 254 259 265 271 279 282 282 283 286 287 288 290 294 297 301 305 306 306 308 309 310 310 310 309 307
204 208 207 208 210 211 212 218 227 237 248 251 248 249 251 250 249 250 252 257 264 269 274 277 278 280 284 285 286 290 295 299 302 305 305 306 308 310 311 311 310 310 308 307
203 207 208 208 212 216 216 224 232 240 245 246 249 252 249 246 245 247 253 261 266 270 273 276 280 282 282 284 290 294 297 300 302 305 307 308 310 311 312 312 311 310 308 306
206 208 213 213 214 215 222 228 232 237 240 244 250 244 245 236 238 246 255 262 268 272 277 280 281 279 281 287 292 295 299 302 305 306 307 309 311 312 312 311 310 309 308 305
206 209 212 213 216 219 222 223 224 227 233 240 245 236 236 232 236 249 259 268 274 278 279 278 278 281 286 291 297 301 303 304 305 306 309 311 312 312 312 312 310 308 307 307
208 209 211 213 216 218 215 215 223 231 235 239 239 234 236 241 248 259 267 274 278 279 279 278 282 290 295 299 301 303 304 305 306 309 310 311 311 312 312 311 310 310 310 311
208 208 202 201 201 205 208 217 228 234 237 237 229 236 245 254 262 268 274 276 276 278 280 286 294 298 299 302 303 304 305 306 307 309 310 311 311 311 311 312 312 313 313 313
198 200 196 198 201 209 217 222 230 236 238 240 238 248 259 265 270 275 276 275 278 283 289 296 298 299 301 302 303 304 305 306 307 309 310 311 311 312 313 314 315 315 315 315
203 199 203 208 211 218 225 228 233 238 241 244 249 256 264 271 274 275 275 277 280 287 293 296 297 299 301 302 304 304 305 307 308 309 310 312 313 315 316 316 317 318 319 318
203 201 204 210 218 228 228 231 237 243 248 252 256 258 261 263 266 270 275 279 284 290 294 296 298 300 301 303 304 305 306 308 309 311 313 314 315 316 316 317 319 320 320 320
196 200 209 217 229 236 237 240 243 248 250 251 251 254 259 263 269 274 278 283 288 292 295 297 299 301 303 304 305 306 308 310 311 313 313 314 315 316 318 320 321 321 321 319
205 211 219 221 233 239 242 250 252 254 256 255 253 254 258 264 269 274 280 285 290 294 297 300 302 304 303 304 305 307 309 310 311 312 313 314 315 318 321 321 321 321 319 318
208 215 223 230 242 248 252 255 247 246 251 253 254 255 257 262 269 276 282 288 293 297 300 302 303 303 303 304 305 306 308 310 311 312 314 316 319 321 322 322 321 319 317 319
198 208 216 224 230 239 245 247 252 252 250 249 251 256 262 267 274 280 287 293 297 299 301 302 302 302 303 304 304 305 309 312 313 315 318 320 322 323 322 321 319 318 318 321
232 237 240 242 246 249 249 250 251 250 251 252 257 262 268 274 280 286 292 296 298 300 301 301 302 302 303 304 306 310 312 313 316 319 321 322 323 323 321 319 318 319 321 322
238 241 245 244 246 247 249 250 253 257 259 262 266 272 276 281 285 290 293 296 298 300 301 301 302 302 304 306 308 310 312 316 319 321 322 322 322 321 318 318 319 320 322 323
249 253 253 252 249 247 247 250 255 259 264 268 273 277 281 284 288 291 294 297 299 300 301 301 302 303 305 307 309 312 315 317 320 321 322 322 320 318 317 318 319 321 323 325
256 257 254 253 253 251 253 256 258 263 268 273 278 281 283 286 289 293 296 298 299 300 300 300 301 303 305 307 310 313 316 318 320 322 321 320 317 317 317 318 319 321 324 327
Height
5703 5711 5721 5736 5749 5757 5762 5766 5771 5773 5775 5780 5784 5787 5789 5791 5795 5798 5801 5803 5804 5804 5804 5804 5803 5802 5802 5802 5802 5802 5802 5801 5799 5796 5793 5790 5788 5785 5782 5779 5776 5774 5771 5768
5697 5707 5724 5736 5744 5750 5756 5762 5768 5770 5772 5776 5779 5784 5786 5788 5791 5793 5796 5798 5798 5798 5798 5798 5798 5797 5797 5798 5798 5798 5797 5796 5793 5790 5786 5782 5780 5777 5774 5772 5769 5766 5764 5760
5694 5708 5720 5729 5738 5746 5754 5761 5765 5767 5769 5773 5776 5780 5782 5785 5787 5789 5791 5792 5792 5792 5792 5794 5794 5794 5793 5794 5794 5792 5790 5788 5786 5783 5779 5776 5774 5771 5768 5765 5762 5759 5756 5752
5692 5706 5717 5726 5736 5744 5753 5757 5759 5762 5765 5769 5772 5776 5779 5781 5783 5785 5786 5786 5786 5786 5786 5789 5790 5790 5788 5788 5787 5785 5783 5781 5779 5776 5773 5770 5767 5764 5761 5758 5755 5752 5748 5744
5688 5703 5713 5723 5734 5742 5750 5751 5755 5759 5762 5766 5769 5770 5777 5776 5779 5780 5781 5781 5781 5781 5782 5784 5786 5785 5783 5781 5780 5778 5776 5774 5772 5770 5767 5764 5760 5757 5754 5751 5747 5743 5739 5734
5688 5699 5710 5720 5731 5739 5743 5747 5751 5754 5758 5764 5768 5767 5773 5772 5774 5776 5776 5775 5775 5776 5777 5779 5780 5778 5777 5775 5773 5771 5770 5767 5765 5762 5759 5756 5753 5749 5746 5742 5738 5733 5728 5722
5684 5696 5706 5717 5725 5732 5735 5743 5748 5752 5756 5762 5763 5763 5769 5768 5770 5770 5770 5770 5770 5771 5772 5773 5773 5771 5769 5767 5766 5765 5762 5760 5757 5754 5752 5748 5745 5741 5737 5733 5728 5723 5717 5711
5681 5690 5702 5712 5721 5728 5733 5741 5746 5750 5753 5756 5758 5761 5765 5764 5764 5764 5765 5765 5765 5765 5766 5767 5767 5764 5762 5760 5759 5756 5755 5753 5750 5747 5744 5740 5736 5732 5727 5722 5716 5710 5704 5697
5681 5694 5704 5712 5720 5725 5730 5736 5742 5745 5748 5751 5754 5757 5759 5758 5758 5758 5758 5758 5758 5760 5761 5762 5761 5758 5756 5753 5751 5749 5748 5746 5743 5740 5735 5731 5726 5721 5715 5709 5703 5696 5688 5681
5682 5693 5701 5709 5715 5720 5727 5733 5736 5740 5742 5746 5749 5751 5753 5752 5751 5751 5752 5752 5754 5755 5757 5755 5753 5751 5749 5746 5744 5743 5741 5738 5735 5731 5726 5721 5715 5709 5703 5696 5690 5683 5674 5666
5681 5691 5699 5706 5711 5716 5724 5728 5732 5735 5737 5740 5743 5747 5745 5744 5745 5746 5746 5748 5750 5751 5750 5748 5746 5744 5742 5739 5737 5736 5733 5730 5726 5721 5716 5710 5704 5698 5691 5684 5677 5668 5659 5650
5679 5688 5694 5702 5707 5713 5719 5723 5727 5730 5733 5735 5738 5744 5739 5738 5740 5741 5742 5744 5745 5744 5743 5742 5740 5737 5734 5733 5730 5727 5724 5720 5716 5710 5705 5699 5693 5686 5678 5670 5661 5652 5643 5633
5677 5684 5689 5696 5704 5710 5715 5719 5722 5726 5729 5730 5732 5738 5734 5735 5736 5737 5739 5739 5738 5737 5736 5734 5732 5730 5727 5725 5722 5718 5714 5710 5705 5700 5694 5687 5680 5672 5664 5655 5646 5637 5627 5617
5675 5681 5687 5695 5702 5708 5712 5717 5721 5722 5723 5725 5727 5729 5729 5730 5732 5734 5733 5732 5731 5729 5728 5726 5724 5722 5720 5717 5712 5708 5704 5699 5693 5687 5681 5673 5665 5657 5648 5640 5631 5620 5609 5597
5672 5678 5683 5690 5697 5702 5708 5712 5714 5716 5718 5719 5722 5721 5723 5726 5728 5727 5726 5726 5725 5722 5721 5719 5717 5715 5712 5708 5703 5698 5693 5687 5681 5674 5667 5658 5650 5642 5633 5624 5613 5602 5589 5575
5671 5677 5683 5688 5694 5699 5703 5706 5708 5711 5713 5714 5716 5717 5718 5720 5720 5720 5719 5719 5717 5716 5715 5713 5710 5707 5703 5698 5693 5688 5681 5675 5668 5660 5653 5645 5636 5627 5617 5606 5595 5582 5568 5551
5672 5677 5682 5687 5690 5693 5697 5702 5705 5706 5707 5708 5710 5714 5714 5713 5712 5712 5711 5711 5711 5710 5708 5705 5701 5697 5693 5687 5682 5675 5668 5661 5654 5647 5639 5631 5621 5610 5598 5586 5574 5559 5543 5528
5670 5674 5678 5683 5686 5689 5697 5698 5700 5701 5703 5704 5707 5708 5707 5706 5706 5706 5706 5705 5704 5702 5699 5695 5691 5686 5681 5676 5669 5662 5655 5648 5640 5632 5623 5614 5603 5591 5579 5566 5550 5535 5521 5506
5668 5672 5676 5680 5682 5686 5691 5693 5695 5696 5697 5699 5700 5700 5699 5699 5700 5700 5699 5698 5695 5692 5689 5685 5681 5675 5669 5663 5656 5650 5642 5634 5625 5616 5606 5596 5586 5574 5560 5544 5527 5513 5500 5489
5666 5671 5674 5676 5679 5682 5688 5689 5689 5691 5690 5692 5692 5693 5694 5694 5694 5693 5692 5689 5686 5683 5679 5674 5669 5663 5657 5651 5644 5637 5628 5619 5610 5601 5590 5580 5568 5553 5537 5521 5508 5494 5483 5472
5665 5668 5671 5673 5674 5676 5681 5681 5682 5684 5686 5687 5686 5687 5688 5687 5687 5686 5683 5681 5677 5673 5668 5662 5657 5651 5645 5638 5631 5623 5615 5606 5596 5585 5574 5561 5546 5531 5516 5503 5490 5479 5469 5457
5660 5662 5665 5667 5668 5673 5674 5675 5676 5678 5679 5679 5680 5680 5680 5679 5679 5677 5675 5671 5667 5662 5656 5651 5645 5639 5632 5625 5617 5610 5601 5591 5579 5567 5554 5541 5526 5511 5498 5486 5475 5465 5453 5440
5657 5659 5661 5664 5667 5667 5669 5670 5671 5672 5673 5674 5674 5674 5673 5672 5670 5667 5664 5659 5654 5649 5644 5638 5632 5624 5617 5610 5602 5594 5584 5574 5561 5548 5535 5523 5509 5495 5482 5471 5461 5450 5437 5423
5653 5655 5657 5658 5660 5662 5663 5665 5665 5666 5667 5667 5667 5666 5664 5662 5659 5655 5651 5647 5641 5636 5630 5623 5616 5609 5602 5595 5587 5579 5569 5557 5544 5532 5519 5506 5493 5481 5470 5457 5445 5434 5422 5409
5649 5651 5652 5653 5655 5657 5657 5658 5658 5659 5659 5659 5657 5655 5653 5651 5647 5643 5638 5633 5627 5621 5615 5608 5601 5594 5587 5579 5571 5562 5551 5539 5527 5516 5503 5490 5478 5467 5457 5446 5433 5421 5409 5392
5643 5644 5646 5647 5649 5650 5650 5650 5651 5650 5649 5648 5646 5644 5641 5637 5633 5629 5625 5619 5613 5607 5601 5594 5587 5580 5572 5563 5553 5543 5533 5522 5512 5500 5488 5475 5464 5454 5443 5434 5425 5411 5398 5383